{"data":{"norad_id":65484,"intl_designator":"2025-195AC","name":"STARLINK-35089","alt_names":[],"object_type":"PAYLOAD","status":"ACTIVE","operator":null,"country":"US","launch_date":"2025-09-03","launch_site_code":"AFETR","launch_vehicle":null,"mission":null,"orbit_class":"UNKNOWN","rcs_meters":null,"size_class":null,"mass_kg":null,"dimensions":null,"purposes":["comms"],"wikipedia_slug":null,"has_3d_model":false,"image_url":null,"decayed_at":null,"tle_current":{"epoch":"2026-05-24T14:46:20.674848Z","epoch_age_seconds":104185,"freshness":"FRESH","line1":"1 65484U 25195AC  26144.61551707  .00026008  00000+0  77787-3 0  9992","line2":"2 65484  53.1558 265.1056 0001324  88.9363 271.1792 15.34413390 41601","mean_motion":15.3441339,"eccentricity":0.0001324,"inclination_deg":53.1558,"raan_deg":265.1056,"arg_perigee_deg":88.9363,"mean_anomaly_deg":271.1792,"bstar":0.00077787,"rev_number":4160,"period_min":93.846939122449,"perigee_km":461.7577206161,"apogee_km":463.5691645733,"semimajor_km":6840.8004425947,"source":"CELESTRAK","updated_at":"2026-05-25T13:38:20.838581Z"}}}